Saint Bonnet de Bellac- Haute Vienne - France
Donnes mto: vendredi, 18/11/2011
Date Horaire Temp. E. Hum. E. P.atmo. Pluie Vent Direction Direction Ensoleilleme Solaire P. de rose Temp au vent Rafales
18/11/2011 00:00 5,3 C 90 % 1022,1 hPa 0,0 mm 0,0 km/h (0 Bft) SE 135 0 min 0 W/m 3,8 C 5,3 C 0,0 km/h (0 Bft)
18/11/2011 00:05 5,2 C 90 % 1022,1 hPa 0,0 mm 0,0 km/h (0 Bft) SE 135 0 min 0 W/m 3,7 C 5,2 C 0,0 km/h (0 Bft)
18/11/2011 00:10 5,1 C 90 % 1022,1 hPa 0,0 mm 0,0 km/h (0 Bft) E-SE 112 0 min 0 W/m 3,6 C 5,1 C 0,0 km/h (0 Bft)
18/11/2011 00:15 4,9 C 90 % 1022,0 hPa 0,0 mm 0,7 km/h (0 Bft) E-SE 112 0 min 0 W/m 3,4 C 4,9 C 3,6 km/h (1 Bft)
18/11/2011 00:20 4,8 C 90 % 1021,9 hPa 0,0 mm 0,7 km/h (0 Bft) N 360 0 min 0 W/m 3,3 C 4,8 C 0,7 km/h (0 Bft)
18/11/2011 00:25 4,9 C 90 % 1022,0 hPa 0,0 mm 0,0 km/h (0 Bft) E-SE 112 0 min 0 W/m 3,4 C 4,9 C 0,0 km/h (0 Bft)
18/11/2011 00:30 4,9 C 90 % 1021,9 hPa 0,0 mm 0,0 km/h (0 Bft) E-NE 67 0 min 0 W/m 3,4 C 4,9 C 0,0 km/h (0 Bft)
18/11/2011 00:35 4,9 C 90 % 1021,7 hPa 0,0 mm 0,0 km/h (0 Bft) E 90 0 min 0 W/m 3,4 C 4,9 C 0,0 km/h (0 Bft)
18/11/2011 00:40 4,9 C 90 % 1021,8 hPa 0,0 mm 0,7 km/h (0 Bft) E 90 0 min 0 W/m 3,4 C 4,9 C 4,3 km/h (1 Bft)
18/11/2011 00:45 4,9 C 90 % 1021,7 hPa 0,0 mm 0,0 km/h (0 Bft) E 90 0 min 0 W/m 3,4 C 4,9 C 0,0 km/h (0 Bft)
18/11/2011 00:50 4,9 C 90 % 1021,7 hPa 0,0 mm 0,0 km/h (0 Bft) SE 135 0 min 0 W/m 3,4 C 4,9 C 0,0 km/h (0 Bft)
18/11/2011 00:55 4,9 C 90 % 1021,6 hPa 0,0 mm 0,0 km/h (0 Bft) E-SE 112 0 min 0 W/m 3,4 C 4,9 C 0,0 km/h (0 Bft)
18/11/2011 01:00 4,9 C 91 % 1021,6 hPa 0,0 mm 0,0 km/h (0 Bft) E-SE 112 0 min 0 W/m 3,6 C 4,9 C 0,0 km/h (0 Bft)
18/11/2011 01:05 4,9 C 91 % 1021,6 hPa 0,0 mm 0,0 km/h (0 Bft) E-SE 112 0 min 0 W/m 3,6 C 4,9 C 3,6 km/h (1 Bft)
18/11/2011 01:10 4,9 C 91 % 1021,5 hPa 0,0 mm 0,7 km/h (0 Bft) SE 135 0 min 0 W/m 3,6 C 4,9 C 4,0 km/h (1 Bft)
18/11/2011 01:15 4,9 C 91 % 1021,6 hPa 0,0 mm 0,0 km/h (0 Bft) E-SE 112 0 min 0 W/m 3,6 C 4,9 C 0,0 km/h (0 Bft)
18/11/2011 01:20 4,9 C 91 % 1021,6 hPa 0,1 mm 0,0 km/h (0 Bft) SE 135 0 min 0 W/m 3,6 C 4,9 C 0,0 km/h (0 Bft)
18/11/2011 01:25 4,9 C 91 % 1021,5 hPa 0,0 mm 1,4 km/h (1 Bft) E 90 0 min 0 W/m 3,6 C 4,9 C 3,2 km/h (1 Bft)
18/11/2011 01:30 5,0 C 91 % 1021,6 hPa 0,0 mm 0,0 km/h (0 Bft) E-SE 112 0 min 0 W/m 3,7 C 5,0 C 0,0 km/h (0 Bft)
18/11/2011 01:35 4,9 C 91 % 1021,5 hPa 0,0 mm 0,0 km/h (0 Bft) SE 135 0 min 0 W/m 3,6 C 4,9 C 0,0 km/h (0 Bft)
18/11/2011 01:40 4,9 C 91 % 1021,6 hPa 0,0 mm 0,0 km/h (0 Bft) SE 135 0 min 0 W/m 3,6 C 4,9 C 0,0 km/h (0 Bft)
18/11/2011 01:45 4,9 C 91 % 1021,6 hPa 0,0 mm 0,0 km/h (0 Bft) E 90 0 min 0 W/m 3,6 C 4,9 C 0,0 km/h (0 Bft)
18/11/2011 01:50 4,9 C 91 % 1021,6 hPa 0,0 mm 0,0 km/h (0 Bft) E 90 0 min 0 W/m 3,6 C 4,9 C 0,0 km/h (0 Bft)
18/11/2011 01:55 4,8 C 91 % 1021,5 hPa 0,0 mm 0,4 km/h (0 Bft) E-NE 67 0 min 0 W/m 3,5 C 4,8 C 3,6 km/h (1 Bft)
18/11/2011 02:02 4,8 C 91 % 1021,5 hPa 0,0 mm 1,1 km/h (1 Bft) E 90 0 min 0 W/m 3,5 C 4,8 C 1,1 km/h (1 Bft)
18/11/2011 02:05 4,8 C 91 % 1021,5 hPa 0,0 mm 0,0 km/h (0 Bft) SE 135 0 min 0 W/m 3,5 C 4,8 C 0,0 km/h (0 Bft)
18/11/2011 02:10 4,7 C 91 % 1021,5 hPa 0,0 mm 0,4 km/h (0 Bft) SE 135 0 min 0 W/m 3,4 C 4,7 C 3,6 km/h (1 Bft)
18/11/2011 02:15 4,6 C 91 % 1021,5 hPa 0,0 mm 0,0 km/h (0 Bft) E-SE 112 0 min 0 W/m 3,3 C 4,6 C 0,0 km/h (0 Bft)
18/11/2011 02:20 4,6 C 91 % 1021,5 hPa 0,0 mm 1,8 km/h (1 Bft) E-NE 67 0 min 0 W/m 3,3 C 4,6 C 4,0 km/h (1 Bft)
18/11/2011 02:25 4,5 C 91 % 1021,4 hPa 0,0 mm 0,0 km/h (0 Bft) E 90 0 min 0 W/m 3,2 C 4,5 C 0,0 km/h (0 Bft)
18/11/2011 02:30 4,4 C 91 % 1021,5 hPa 0,0 mm 0,0 km/h (0 Bft) N 360 0 min 0 W/m 3,1 C 4,4 C 0,0 km/h (0 Bft)
18/11/2011 02:35 4,4 C 92 % 1021,3 hPa 0,0 mm 1,4 km/h (1 Bft) E-SE 112 0 min 0 W/m 3,2 C 4,4 C 5,8 km/h (2 Bft)
18/11/2011 02:40 4,4 C 92 % 1021,4 hPa 0,0 mm 0,0 km/h (0 Bft) E-NE 67 0 min 0 W/m 3,2 C 4,4 C 1,4 km/h (1 Bft)
18/11/2011 02:45 4,4 C 91 % 1021,4 hPa 0,0 mm 3,2 km/h (1 Bft) E-SE 112 0 min 0 W/m 3,1 C 4,4 C 3,6 km/h (1 Bft)
18/11/2011 02:50 4,3 C 91 % 1021,4 hPa 0,0 mm 1,1 km/h (1 Bft) SE 135 0 min 0 W/m 3,0 C 4,3 C 3,2 km/h (1 Bft)
18/11/2011 02:55 4,4 C 91 % 1021,4 hPa 0,0 mm 4,0 km/h (1 Bft) E-NE 67 0 min 0 W/m 3,1 C 4,4 C 4,0 km/h (1 Bft)
18/11/2011 03:00 4,4 C 91 % 1021,4 hPa 0,0 mm 1,1 km/h (1 Bft) SE 135 0 min 0 W/m 3,1 C 4,4 C 3,6 km/h (1 Bft)
18/11/2011 03:05 4,4 C 91 % 1021,5 hPa 0,0 mm 1,4 km/h (1 Bft) E-NE 67 0 min 0 W/m 3,1 C 4,4 C 4,0 km/h (1 Bft)
18/11/2011 03:10 4,4 C 91 % 1021,4 hPa 0,0 mm 2,2 km/h (1 Bft) E 90 0 min 0 W/m 3,1 C 4,4 C 2,2 km/h (1 Bft)
18/11/2011 03:15 4,3 C 91 % 1021,4 hPa 0,0 mm 4,7 km/h (1 Bft) E-SE 112 0 min 0 W/m 3,0 C 3,4 C 6,5 km/h (2 Bft)
18/11/2011 03:20 4,3 C 91 % 1021,4 hPa 0,0 mm 1,8 km/h (1 Bft) E 90 0 min 0 W/m 3,0 C 4,3 C 3,6 km/h (1 Bft)
18/11/2011 03:25 4,3 C 92 % 1021,4 hPa 0,0 mm 2,2 km/h (1 Bft) SE 135 0 min 0 W/m 3,1 C 4,3 C 6,8 km/h (2 Bft)
18/11/2011 03:30 4,3 C 92 % 1021,3 hPa 0,0 mm 1,4 km/h (1 Bft) E 90 0 min 0 W/m 3,1 C 4,3 C 4,0 km/h (1 Bft)
18/11/2011 03:35 4,3 C 92 % 1021,3 hPa 0,0 mm 0,4 km/h (0 Bft) E 90 0 min 0 W/m 3,1 C 4,3 C 0,4 km/h (0 Bft)
18/11/2011 03:40 4,3 C 92 % 1021,3 hPa 0,0 mm 0,4 km/h (0 Bft) E-SE 112 0 min 0 W/m 3,1 C 4,3 C 0,4 km/h (0 Bft)
18/11/2011 03:45 4,2 C 92 % 1021,2 hPa 0,0 mm 0,4 km/h (0 Bft) E-SE 112 0 min 0 W/m 3,0 C 4,2 C 0,4 km/h (0 Bft)
18/11/2011 03:50 4,1 C 92 % 1021,3 hPa 0,0 mm 0,0 km/h (0 Bft) E-SE 112 0 min 0 W/m 2,9 C 4,1 C 2,9 km/h (1 Bft)
18/11/2011 03:55 4,1 C 92 % 1021,1 hPa 0,0 mm 1,4 km/h (1 Bft) SE 135 0 min 0 W/m 2,9 C 4,1 C 3,6 km/h (1 Bft)
18/11/2011 04:00 4,1 C 92 % 1021,1 hPa 0,0 mm 0,0 km/h (0 Bft) E-SE 112 0 min 0 W/m 2,9 C 4,1 C 0,0 km/h (0 Bft)
18/11/2011 04:05 4,0 C 92 % 1021,0 hPa 0,0 mm 0,7 km/h (0 Bft) E 90 0 min 0 W/m 2,8 C 4,0 C 3,2 km/h (1 Bft)
18/11/2011 04:10 3,9 C 92 % 1020,9 hPa 0,0 mm 1,4 km/h (1 Bft) NE 45 0 min 0 W/m 2,7 C 3,9 C 3,6 km/h (1 Bft)
18/11/2011 04:15 3,9 C 92 % 1020,9 hPa 0,0 mm 2,9 km/h (1 Bft) E-NE 67 0 min 0 W/m 2,7 C 3,9 C 4,0 km/h (1 Bft)
18/11/2011 04:20 3,8 C 92 % 1020,9 hPa 0,0 mm 2,5 km/h (1 Bft) E-NE 67 0 min 0 W/m 2,6 C 3,8 C 6,5 km/h (2 Bft)
18/11/2011 04:25 3,8 C 92 % 1020,8 hPa 0,0 mm 0,4 km/h (0 Bft) E-NE 67 0 min 0 W/m 2,6 C 3,8 C 4,0 km/h (1 Bft)
18/11/2011 04:30 3,8 C 92 % 1020,8 hPa 0,0 mm 0,0 km/h (0 Bft) E 90 0 min 0 W/m 2,6 C 3,8 C 0,0 km/h (0 Bft)
18/11/2011 04:35 3,8 C 92 % 1020,7 hPa 0,0 mm 0,7 km/h (0 Bft) E-SE 112 0 min 0 W/m 2,6 C 3,8 C 4,0 km/h (1 Bft)
18/11/2011 04:40 3,8 C 92 % 1020,6 hPa 0,0 mm 0,0 km/h (0 Bft) E-NE 67 0 min 0 W/m 2,6 C 3,8 C 0,0 km/h (0 Bft)
18/11/2011 04:45 3,7 C 92 % 1020,6 hPa 0,0 mm 1,1 km/h (1 Bft) E-SE 112 0 min 0 W/m 2,5 C 3,7 C 1,1 km/h (1 Bft)
18/11/2011 04:50 3,7 C 92 % 1020,6 hPa 0,0 mm 0,0 km/h (0 Bft) E-SE 112 0 min 0 W/m 2,5 C 3,7 C 0,0 km/h (0 Bft)
18/11/2011 04:55 3,7 C 92 % 1020,6 hPa 0,0 mm 1,1 km/h (1 Bft) E-SE 112 0 min 0 W/m 2,5 C 3,7 C 3,6 km/h (1 Bft)
18/11/2011 05:00 3,6 C 92 % 1020,5 hPa 0,0 mm 0,7 km/h (0 Bft) E-SE 112 0 min 0 W/m 2,4 C 3,6 C 4,3 km/h (1 Bft)
18/11/2011 05:05 3,6 C 92 % 1020,5 hPa 0,0 mm 1,8 km/h (1 Bft) SE 135 0 min 0 W/m 2,4 C 3,6 C 3,2 km/h (1 Bft)
18/11/2011 05:10 3,7 C 92 % 1020,5 hPa 0,0 mm 4,0 km/h (1 Bft) E-SE 112 0 min 0 W/m 2,5 C 3,7 C 6,1 km/h (2 Bft)
18/11/2011 05:15 3,7 C 92 % 1020,5 hPa 0,0 mm 2,5 km/h (1 Bft) E 90 0 min 0 W/m 2,5 C 3,7 C 4,3 km/h (1 Bft)
18/11/2011 05:20 3,7 C 92 % 1020,5 hPa 0,0 mm 3,6 km/h (1 Bft) E-NE 67 0 min 0 W/m 2,5 C 3,7 C 3,6 km/h (1 Bft)
18/11/2011 05:25 3,7 C 92 % 1020,5 hPa 0,0 mm 0,7 km/h (0 Bft) E-SE 112 0 min 0 W/m 2,5 C 3,7 C 0,7 km/h (0 Bft)
18/11/2011 05:30 3,6 C 92 % 1020,4 hPa 0,0 mm 2,5 km/h (1 Bft) E-SE 112 0 min 0 W/m 2,4 C 3,6 C 6,1 km/h (2 Bft)
18/11/2011 05:35 3,6 C 93 % 1020,4 hPa 0,0 mm 2,2 km/h (1 Bft) E-SE 112 0 min 0 W/m 2,6 C 3,6 C 4,3 km/h (1 Bft)
18/11/2011 05:40 3,6 C 92 % 1020,3 hPa 0,0 mm 4,0 km/h (1 Bft) E 90 0 min 0 W/m 2,4 C 3,6 C 6,1 km/h (2 Bft)
18/11/2011 05:45 3,6 C 92 % 1020,3 hPa 0,0 mm 0,0 km/h (0 Bft) SE 135 0 min 0 W/m 2,4 C 3,6 C 0,0 km/h (0 Bft)
18/11/2011 05:50 3,6 C 93 % 1020,4 hPa 0,0 mm 2,5 km/h (1 Bft) E-SE 112 0 min 0 W/m 2,6 C 3,6 C 7,6 km/h (2 Bft)
18/11/2011 05:55 3,6 C 93 % 1020,4 hPa 0,0 mm 2,9 km/h (1 Bft) E-NE 67 0 min 0 W/m 2,6 C 3,6 C 6,5 km/h (2 Bft)
18/11/2011 06:00 3,6 C 93 % 1020,4 hPa 0,0 mm 4,3 km/h (1 Bft) SE 135 0 min 0 W/m 2,6 C 3,6 C 6,1 km/h (2 Bft)
18/11/2011 06:05 3,6 C 92 % 1020,3 hPa 0,0 mm 1,4 km/h (1 Bft) E 90 0 min 0 W/m 2,4 C 3,6 C 4,3 km/h (1 Bft)
18/11/2011 06:10 3,5 C 92 % 1020,3 hPa 0,0 mm 1,4 km/h (1 Bft) E 90 0 min 0 W/m 2,3 C 3,5 C 6,8 km/h (2 Bft)
18/11/2011 06:15 3,4 C 92 % 1020,2 hPa 0,0 mm 0,4 km/h (0 Bft) SE 135 0 min 0 W/m 2,2 C 3,4 C 4,0 km/h (1 Bft)
18/11/2011 06:20 3,4 C 92 % 1020,1 hPa 0,0 mm 4,7 km/h (1 Bft) NE 45 0 min 0 W/m 2,2 C 2,4 C 7,6 km/h (2 Bft)
18/11/2011 06:25 3,3 C 92 % 1020,1 hPa 0,0 mm 1,1 km/h (1 Bft) E-SE 112 0 min 0 W/m 2,1 C 3,3 C 4,0 km/h (1 Bft)
18/11/2011 06:30 3,3 C 92 % 1020,1 hPa 0,0 mm 1,1 km/h (1 Bft) E-NE 67 0 min 0 W/m 2,1 C 3,3 C 4,3 km/h (1 Bft)
18/11/2011 06:35 3,3 C 92 % 1020,1 hPa 0,0 mm 1,8 km/h (1 Bft) E 90 0 min 0 W/m 2,1 C 3,3 C 2,9 km/h (1 Bft)
18/11/2011 06:40 3,3 C 92 % 1020,1 hPa 0,0 mm 1,4 km/h (1 Bft) E 90 0 min 0 W/m 2,1 C 3,3 C 4,0 km/h (1 Bft)
18/11/2011 06:45 3,3 C 93 % 1020,1 hPa 0,0 mm 1,4 km/h (1 Bft) E 90 0 min 0 W/m 2,3 C 3,3 C 4,3 km/h (1 Bft)
18/11/2011 06:50 3,3 C 93 % 1020,1 hPa 0,0 mm 0,4 km/h (0 Bft) E 90 0 min 0 W/m 2,3 C 3,3 C 2,9 km/h (1 Bft)
18/11/2011 06:55 3,4 C 93 % 1020,1 hPa 0,0 mm 3,6 km/h (1 Bft) E 90 0 min 0 W/m 2,4 C 3,4 C 8,3 km/h (2 Bft)
18/11/2011 07:00 3,3 C 92 % 1020,0 hPa 0,0 mm 2,5 km/h (1 Bft) E 90 0 min 0 W/m 2,1 C 3,3 C 4,3 km/h (1 Bft)
18/11/2011 07:05 3,4 C 92 % 1020,0 hPa 0,0 mm 5,0 km/h (1 Bft) E-SE 112 0 min 0 W/m 2,2 C 2,3 C 7,2 km/h (2 Bft)
18/11/2011 07:10 3,4 C 92 % 1020,0 hPa 0,0 mm 2,2 km/h (1 Bft) E-SE 112 0 min 0 W/m 2,2 C 3,4 C 4,3 km/h (1 Bft)
18/11/2011 07:15 3,3 C 92 % 1020,0 hPa 0,0 mm 0,7 km/h (0 Bft) SE 135 0 min 0 W/m 2,1 C 3,3 C 0,7 km/h (0 Bft)
18/11/2011 07:20 3,3 C 92 % 1020,0 hPa 0,0 mm 2,2 km/h (1 Bft) SE 135 0 min 0 W/m 2,1 C 3,3 C 4,3 km/h (1 Bft)
18/11/2011 07:25 3,3 C 92 % 1020,0 hPa 0,0 mm 3,6 km/h (1 Bft) E-NE 67 0 min 0 W/m 2,1 C 3,3 C 6,8 km/h (2 Bft)
18/11/2011 07:30 3,2 C 92 % 1019,9 hPa 0,0 mm 1,8 km/h (1 Bft) E-NE 67 0 min 0 W/m 2,0 C 3,2 C 3,2 km/h (1 Bft)
18/11/2011 07:35 3,1 C 92 % 1019,9 hPa 0,0 mm 0,4 km/h (0 Bft) E 90 0 min 0 W/m 1,9 C 3,1 C 4,0 km/h (1 Bft)
18/11/2011 07:40 3,1 C 92 % 1019,9 hPa 0,0 mm 0,0 km/h (0 Bft) E-SE 112 0 min 0 W/m 1,9 C 3,1 C 0,0 km/h (0 Bft)
18/11/2011 07:45 3,1 C 92 % 1019,9 hPa 0,0 mm 0,0 km/h (0 Bft) E-SE 112 0 min 0 W/m 1,9 C 3,1 C 3,2 km/h (1 Bft)
18/11/2011 07:50 3,1 C 92 % 1019,9 hPa 0,0 mm 0,4 km/h (0 Bft) E 90 0 min 0 W/m 1,9 C 3,1 C 3,2 km/h (1 Bft)
18/11/2011 07:55 3,1 C 92 % 1019,9 hPa 0,0 mm 3,2 km/h (1 Bft) E-SE 112 0 min 0 W/m 1,9 C 3,1 C 4,3 km/h (1 Bft)
18/11/2011 08:00 3,1 C 92 % 1019,9 hPa 0,0 mm 0,0 km/h (0 Bft) SE 135 0 min 0 W/m 1,9 C 3,1 C 0,0 km/h (0 Bft)
18/11/2011 08:05 3,1 C 92 % 1020,0 hPa 0,0 mm 0,0 km/h (0 Bft) E-SE 112 0 min 0 W/m 1,9 C 3,1 C 0,0 km/h (0 Bft)
18/11/2011 08:10 3,1 C 92 % 1020,0 hPa 0,0 mm 0,7 km/h (0 Bft) E 90 0 min 0 W/m 1,9 C 3,1 C 0,7 km/h (0 Bft)
18/11/2011 08:15 3,1 C 92 % 1020,0 hPa 0,0 mm 5,4 km/h (2 Bft) SE 135 0 min 0 W/m 1,9 C 1,8 C 9,7 km/h (2 Bft)
18/11/2011 08:20 3,1 C 92 % 1020,0 hPa 0,0 mm 4,0 km/h (1 Bft) E 90 0 min 0 W/m 1,9 C 3,1 C 7,6 km/h (2 Bft)
18/11/2011 08:25 3,2 C 92 % 1020,0 hPa 0,0 mm 2,2 km/h (1 Bft) E-SE 112 0 min 0 W/m 2,0 C 3,2 C 8,3 km/h (2 Bft)
18/11/2011 08:30 3,2 C 92 % 1020,0 hPa 0,0 mm 2,5 km/h (1 Bft) E 90 0 min 0 W/m 2,0 C 3,2 C 3,6 km/h (1 Bft)
18/11/2011 08:35 3,3 C 92 % 1020,0 hPa 0,0 mm 2,9 km/h (1 Bft) E-SE 112 0 min 0 W/m 2,1 C 3,3 C 7,2 km/h (2 Bft)
18/11/2011 08:40 3,3 C 92 % 1020,0 hPa 0,0 mm 2,5 km/h (1 Bft) E-NE 67 0 min 0 W/m 2,1 C 3,3 C 3,6 km/h (1 Bft)
18/11/2011 08:45 3,4 C 92 % 1020,0 hPa 0,0 mm 1,8 km/h (1 Bft) E 90 0 min 0 W/m 2,2 C 3,4 C 6,1 km/h (2 Bft)
18/11/2011 08:50 3,6 C 92 % 1020,1 hPa 0,0 mm 2,2 km/h (1 Bft) E-NE 67 0 min 0 W/m 2,4 C 3,6 C 6,5 km/h (2 Bft)
18/11/2011 08:55 3,8 C 91 % 1020,1 hPa 0,0 mm 2,5 km/h (1 Bft) E-SE 112 0 min 0 W/m 2,5 C 3,8 C 6,5 km/h (2 Bft)
18/11/2011 09:00 3,9 C 91 % 1020,1 hPa 0,0 mm 1,4 km/h (1 Bft) E 90 0 min 0 W/m 2,6 C 3,9 C 1,4 km/h (1 Bft)
18/11/2011 09:05 4,1 C 91 % 1020,0 hPa 0,0 mm 1,1 km/h (1 Bft) E 90 0 min 0 W/m 2,8 C 4,1 C 3,6 km/h (1 Bft)
18/11/2011 09:10 4,3 C 91 % 1020,1 hPa 0,0 mm 3,2 km/h (1 Bft) E 90 0 min 0 W/m 3,0 C 4,3 C 6,8 km/h (2 Bft)
18/11/2011 09:15 4,4 C 90 % 1020,1 hPa 0,0 mm 1,8 km/h (1 Bft) E-SE 112 0 min 0 W/m 2,9 C 4,4 C 4,3 km/h (1 Bft)
18/11/2011 09:20 4,6 C 90 % 1020,1 hPa 0,0 mm 2,5 km/h (1 Bft) E 90 0 min 0 W/m 3,1 C 4,6 C 6,1 km/h (2 Bft)
18/11/2011 09:25 4,6 C 90 % 1020,2 hPa 0,0 mm 2,2 km/h (1 Bft) SE 135 0 min 0 W/m 3,1 C 4,6 C 4,0 km/h (1 Bft)
18/11/2011 09:30 4,6 C 90 % 1020,1 hPa 0,0 mm 1,4 km/h (1 Bft) E-SE 112 0 min 0 W/m 3,1 C 4,6 C 4,0 km/h (1 Bft)
18/11/2011 09:35 4,8 C 90 % 1020,1 hPa 0,0 mm 3,6 km/h (1 Bft) E-SE 112 0 min 0 W/m 3,3 C 4,8 C 4,3 km/h (1 Bft)
18/11/2011 09:40 4,8 C 89 % 1020,2 hPa 0,0 mm 4,0 km/h (1 Bft) E 90 0 min 0 W/m 3,1 C 4,8 C 7,6 km/h (2 Bft)
18/11/2011 09:45 4,9 C 89 % 1020,2 hPa 0,0 mm 1,1 km/h (1 Bft) E-SE 112 0 min 0 W/m 3,2 C 4,9 C 4,0 km/h (1 Bft)
18/11/2011 09:50 4,9 C 89 % 1020,1 hPa 0,0 mm 4,0 km/h (1 Bft) E-SE 112 0 min 0 W/m 3,2 C 4,9 C 7,2 km/h (2 Bft)
18/11/2011 09:55 4,9 C 89 % 1020,1 hPa 0,0 mm 2,5 km/h (1 Bft) E-SE 112 0 min 0 W/m 3,2 C 4,9 C 6,5 km/h (2 Bft)
18/11/2011 10:00 5,1 C 89 % 1020,0 hPa 0,0 mm 2,9 km/h (1 Bft) E-SE 112 0 min 0 W/m 3,4 C 5,1 C 4,0 km/h (1 Bft)
18/11/2011 10:05 5,1 C 88 % 1020,0 hPa 0,0 mm 2,9 km/h (1 Bft) E 90 0 min 0 W/m 3,3 C 5,1 C 4,3 km/h (1 Bft)
18/11/2011 10:10 5,2 C 88 % 1020,0 hPa 0,0 mm 2,9 km/h (1 Bft) SE 135 0 min 0 W/m 3,4 C 5,2 C 4,3 km/h (1 Bft)
18/11/2011 10:15 5,3 C 88 % 1019,9 hPa 0,0 mm 1,8 km/h (1 Bft) NE 45 0 min 0 W/m 3,5 C 5,3 C 4,0 km/h (1 Bft)
18/11/2011 10:20 5,5 C 89 % 1019,9 hPa 0,0 mm 2,9 km/h (1 Bft) E-NE 67 0 min 0 W/m 3,8 C 5,5 C 5,4 km/h (2 Bft)
18/11/2011 10:25 5,7 C 89 % 1020,0 hPa 0,0 mm 0,7 km/h (0 Bft) E-SE 112 0 min 0 W/m 4,0 C 5,7 C 4,0 km/h (1 Bft)
18/11/2011 10:30 5,9 C 89 % 1020,0 hPa 0,0 mm 1,4 km/h (1 Bft) E-SE 112 0 min 0 W/m 4,2 C 5,9 C 7,6 km/h (2 Bft)
18/11/2011 10:35 6,2 C 88 % 1019,9 hPa 0,0 mm 3,2 km/h (1 Bft) E-NE 67 0 min 0 W/m 4,4 C 6,2 C 6,5 km/h (2 Bft)
18/11/2011 10:40 6,4 C 88 % 1019,8 hPa 0,0 mm 1,4 km/h (1 Bft) E-NE 67 0 min 0 W/m 4,6 C 6,4 C 4,0 km/h (1 Bft)
18/11/2011 10:45 6,6 C 88 % 1019,9 hPa 0,0 mm 0,4 km/h (0 Bft) E 90 0 min 0 W/m 4,8 C 6,6 C 3,6 km/h (1 Bft)
18/11/2011 10:50 6,9 C 87 % 1019,8 hPa 0,0 mm 0,4 km/h (0 Bft) E 90 0 min 0 W/m 4,9 C 6,9 C 3,6 km/h (1 Bft)
18/11/2011 10:55 7,2 C 87 % 1019,8 hPa 0,0 mm 3,6 km/h (1 Bft) E-SE 112 0 min 0 W/m 5,2 C 7,2 C 4,0 km/h (1 Bft)
18/11/2011 11:00 7,5 C 87 % 1019,8 hPa 0,0 mm 1,8 km/h (1 Bft) E-NE 67 0 min 0 W/m 5,5 C 7,5 C 1,8 km/h (1 Bft)
18/11/2011 11:05 7,8 C 86 % 1019,8 hPa 0,0 mm 4,3 km/h (1 Bft) E 90 0 min 0 W/m 5,6 C 7,8 C 7,6 km/h (2 Bft)
18/11/2011 11:10 8,1 C 85 % 1019,8 hPa 0,0 mm 4,0 km/h (1 Bft) E 90 0 min 0 W/m 5,7 C 8,1 C 7,9 km/h (2 Bft)
18/11/2011 11:15 8,5 C 84 % 1019,7 hPa 0,0 mm 2,5 km/h (1 Bft) E-NE 67 0 min 0 W/m 6,0 C 8,5 C 4,3 km/h (1 Bft)
18/11/2011 11:20 8,8 C 84 % 1019,8 hPa 0,0 mm 0,4 km/h (0 Bft) E-NE 67 0 min 0 W/m 6,2 C 8,8 C 3,2 km/h (1 Bft)
18/11/2011 11:25 9,2 C 83 % 1019,7 hPa 0,0 mm 4,3 km/h (1 Bft) E-SE 112 0 min 0 W/m 6,5 C 9,2 C 4,3 km/h (1 Bft)
18/11/2011 11:30 9,6 C 82 % 1019,7 hPa 0,0 mm 0,0 km/h (0 Bft) E-SE 112 0 min 0 W/m 6,7 C 9,6 C 0,0 km/h (0 Bft)
18/11/2011 11:35 9,8 C 83 % 1019,6 hPa 0,0 mm 1,8 km/h (1 Bft) E-SE 112 0 min 0 W/m 7,1 C 9,8 C 4,3 km/h (1 Bft)
18/11/2011 11:40 10,2 C 82 % 1019,6 hPa 0,0 mm 1,4 km/h (1 Bft) E 90 0 min 0 W/m 7,3 C 10,2 C 3,6 km/h (1 Bft)
18/11/2011 11:45 10,5 C 80 % 1019,5 hPa 0,0 mm 2,5 km/h (1 Bft) E 90 0 min 0 W/m 7,2 C 10,5 C 5,8 km/h (2 Bft)
18/11/2011 11:50 10,8 C 80 % 1019,5 hPa 0,0 mm 1,4 km/h (1 Bft) E 90 0 min 0 W/m 7,5 C 10,8 C 2,9 km/h (1 Bft)
18/11/2011 11:55 11,2 C 80 % 1019,3 hPa 0,0 mm 1,4 km/h (1 Bft) E-SE 112 0 min 0 W/m 7,9 C 11,2 C 4,0 km/h (1 Bft)
18/11/2011 12:00 11,5 C 79 % 1019,3 hPa 0,0 mm 2,2 km/h (1 Bft) E-SE 112 0 min 0 W/m 8,0 C 11,5 C 4,3 km/h (1 Bft)
18/11/2011 12:05 11,8 C 79 % 1019,3 hPa 0,0 mm 0,0 km/h (0 Bft) E-SE 112 0 min 0 W/m 8,3 C 11,8 C 0,0 km/h (0 Bft)
18/11/2011 12:10 12,3 C 80 % 1019,2 hPa 0,0 mm 0,0 km/h (0 Bft) E-SE 112 0 min 0 W/m 8,9 C 12,3 C 0,0 km/h (0 Bft)
18/11/2011 12:15 12,8 C 79 % 1019,2 hPa 0,0 mm 0,0 km/h (0 Bft) E-SE 112 0 min 0 W/m 9,2 C 12,8 C 0,0 km/h (0 Bft)
18/11/2011 12:20 13,2 C 78 % 1019,1 hPa 0,0 mm 0,0 km/h (0 Bft) E-SE 112 0 min 0 W/m 9,4 C 13,2 C 0,0 km/h (0 Bft)
18/11/2011 12:25 13,6 C 77 % 1019,0 hPa 0,0 mm 1,8 km/h (1 Bft) E-SE 112 0 min 0 W/m 9,6 C 13,6 C 3,2 km/h (1 Bft)
18/11/2011 12:30 14,1 C 76 % 1019,1 hPa 0,0 mm 1,1 km/h (1 Bft) E-SE 112 0 min 0 W/m 9,9 C 14,1 C 4,3 km/h (1 Bft)
18/11/2011 12:35 14,4 C 75 % 1019,0 hPa 0,0 mm 0,4 km/h (0 Bft) E-SE 112 0 min 0 W/m 10,0 C 14,4 C 4,0 km/h (1 Bft)
18/11/2011 12:40 14,8 C 73 % 1019,0 hPa 0,0 mm 0,0 km/h (0 Bft) E-SE 112 0 min 0 W/m 10,0 C 14,8 C 0,0 km/h (0 Bft)
18/11/2011 12:45 14,9 C 73 % 1018,9 hPa 0,0 mm 0,0 km/h (0 Bft) S 180 0 min 0 W/m 10,1 C 14,9 C 0,0 km/h (0 Bft)
18/11/2011 12:50 15,2 C 70 % 1018,7 hPa 0,0 mm 0,7 km/h (0 Bft) S-SE 157 0 min 0 W/m 9,8 C 15,2 C 4,3 km/h (1 Bft)
18/11/2011 12:55 15,3 C 70 % 1018,7 hPa 0,0 mm 1,4 km/h (1 Bft) S-SE 157 0 min 0 W/m 9,9 C 15,3 C 3,2 km/h (1 Bft)
18/11/2011 13:00 15,6 C 70 % 1018,8 hPa 0,0 mm 0,0 km/h (0 Bft) S-SE 157 0 min 0 W/m 10,1 C 15,6 C 0,0 km/h (0 Bft)
18/11/2011 13:05 15,9 C 65 % 1018,8 hPa 0,0 mm 5,4 km/h (2 Bft) S-SE 157 0 min 0 W/m 9,3 C 15,9 C 8,3 km/h (2 Bft)
18/11/2011 13:10 16,3 C 65 % 1018,7 hPa 0,0 mm 8,3 km/h (2 Bft) S-SO 202 0 min 0 W/m 9,7 C 16,3 C 13,0 km/h (3 Bft)
18/11/2011 13:15 16,4 C 64 % 1018,5 hPa 0,0 mm 5,8 km/h (2 Bft) S-SO 202 0 min 0 W/m 9,6 C 16,4 C 8,3 km/h (2 Bft)
18/11/2011 13:20 16,5 C 62 % 1018,3 hPa 0,0 mm 6,1 km/h (2 Bft) S-SE 157 0 min 0 W/m 9,2 C 16,5 C 7,6 km/h (2 Bft)
18/11/2011 13:25 16,5 C 63 % 1018,4 hPa 0,0 mm 5,8 km/h (2 Bft) E-SE 112 0 min 0 W/m 9,4 C 16,5 C 15,1 km/h (3 Bft)
18/11/2011 13:30 16,5 C 63 % 1018,5 hPa 0,0 mm 3,6 km/h (1 Bft) S-SE 157 0 min 0 W/m 9,4 C 16,5 C 4,3 km/h (1 Bft)
18/11/2011 13:35 16,6 C 62 % 1018,5 hPa 0,0 mm 5,8 km/h (2 Bft) S 180 0 min 0 W/m 9,3 C 16,6 C 9,4 km/h (2 Bft)
18/11/2011 13:40 16,6 C 62 % 1018,5 hPa 0,0 mm 6,1 km/h (2 Bft) S-SE 157 0 min 0 W/m 9,3 C 16,6 C 9,7 km/h (2 Bft)
18/11/2011 13:45 16,6 C 62 % 1018,5 hPa 0,0 mm 3,2 km/h (1 Bft) SO 225 0 min 0 W/m 9,3 C 16,6 C 8,3 km/h (2 Bft)
18/11/2011 13:50 16,6 C 61 % 1018,6 hPa 0,0 mm 7,2 km/h (2 Bft) S-SE 157 0 min 0 W/m 9,0 C 16,6 C 17,6 km/h (3 Bft)
18/11/2011 13:55 16,6 C 61 % 1018,5 hPa 0,0 mm 7,2 km/h (2 Bft) S-SE 157 0 min 0 W/m 9,0 C 16,6 C 7,2 km/h (2 Bft)
18/11/2011 14:00 16,5 C 60 % 1018,3 hPa 0,0 mm 5,4 km/h (2 Bft) O-SO 247 0 min 0 W/m 8,7 C 16,5 C 6,1 km/h (2 Bft)
18/11/2011 14:05 16,6 C 61 % 1018,1 hPa 0,0 mm 4,3 km/h (1 Bft) S-SO 202 0 min 0 W/m 9,0 C 16,6 C 4,3 km/h (1 Bft)
18/11/2011 14:10 16,6 C 61 % 1017,9 hPa 0,0 mm 5,4 km/h (2 Bft) S-SO 202 0 min 0 W/m 9,0 C 16,6 C 7,9 km/h (2 Bft)
18/11/2011 14:15 16,6 C 61 % 1017,8 hPa 0,0 mm 6,8 km/h (2 Bft) S-SE 157 0 min 0 W/m 9,0 C 16,6 C 10,1 km/h (2 Bft)
18/11/2011 14:20 16,6 C 61 % 1017,7 hPa 0,0 mm 6,1 km/h (2 Bft) E-SE 112 0 min 0 W/m 9,0 C 16,6 C 11,2 km/h (2 Bft)
18/11/2011 14:25 16,6 C 61 % 1017,5 hPa 0,0 mm 2,5 km/h (1 Bft) S 180 0 min 0 W/m 9,0 C 16,6 C 4,3 km/h (1 Bft)
18/11/2011 14:30 16,6 C 62 % 1017,4 hPa 0,0 mm 1,4 km/h (1 Bft) S-SE 157 0 min 0 W/m 9,3 C 16,6 C 3,6 km/h (1 Bft)
18/11/2011 14:35 16,6 C 61 % 1017,3 hPa 0,0 mm 5,4 km/h (2 Bft) S-SO 202 0 min 0 W/m 9,0 C 16,6 C 11,2 km/h (2 Bft)
18/11/2011 14:40 16,6 C 62 % 1017,2 hPa 0,0 mm 5,4 km/h (2 Bft) S-SO 202 0 min 0 W/m 9,3 C 16,6 C 6,8 km/h (2 Bft)
18/11/2011 14:45 16,5 C 61 % 1017,2 hPa 0,0 mm 4,7 km/h (1 Bft) SO 225 0 min 0 W/m 9,0 C 16,5 C 6,8 km/h (2 Bft)
18/11/2011 14:50 16,4 C 62 % 1017,1 hPa 0,0 mm 9,0 km/h (2 Bft) SO 225 0 min 0 W/m 9,1 C 16,4 C 13,3 km/h (3 Bft)
18/11/2011 14:55 16,3 C 61 % 1017,0 hPa 0,0 mm 4,0 km/h (1 Bft) S-SE 157 0 min 0 W/m 8,8 C 16,3 C 7,9 km/h (2 Bft)
18/11/2011 15:00 16,4 C 62 % 1016,7 hPa 0,0 mm 11,2 km/h (2 Bft) S 180 0 min 0 W/m 9,1 C 16,4 C 12,2 km/h (2 Bft)
18/11/2011 15:05 16,3 C 62 % 1016,7 hPa 0,0 mm 7,6 km/h (2 Bft) S-SE 157 0 min 0 W/m 9,0 C 16,3 C 8,6 km/h (2 Bft)
18/11/2011 15:10 16,3 C 62 % 1016,7 hPa 0,0 mm 1,8 km/h (1 Bft) SE 135 0 min 0 W/m 9,0 C 16,3 C 4,3 km/h (1 Bft)
18/11/2011 15:15 16,3 C 62 % 1016,7 hPa 0,0 mm 4,0 km/h (1 Bft) E-SE 112 0 min 0 W/m 9,0 C 16,3 C 4,3 km/h (1 Bft)
18/11/2011 15:20 16,3 C 63 % 1016,7 hPa 0,0 mm 4,0 km/h (1 Bft) E-SE 112 0 min 0 W/m 9,2 C 16,3 C 4,0 km/h (1 Bft)
18/11/2011 15:25 16,3 C 62 % 1016,6 hPa 0,0 mm 1,4 km/h (1 Bft) SE 135 0 min 0 W/m 9,0 C 16,3 C 6,1 km/h (2 Bft)
18/11/2011 15:30 16,3 C 62 % 1016,6 hPa 0,0 mm 7,6 km/h (2 Bft) SE 135 0 min 0 W/m 9,0 C 16,3 C 8,6 km/h (2 Bft)
18/11/2011 15:35 16,2 C 62 % 1016,6 hPa 0,0 mm 3,2 km/h (1 Bft) SE 135 0 min 0 W/m 8,9 C 16,2 C 4,3 km/h (1 Bft)
18/11/2011 15:40 16,1 C 62 % 1016,5 hPa 0,0 mm 5,0 km/h (1 Bft) S 180 0 min 0 W/m 8,8 C 16,1 C 7,2 km/h (2 Bft)
18/11/2011 15:45 16,0 C 62 % 1016,5 hPa 0,0 mm 1,4 km/h (1 Bft) S 180 0 min 0 W/m 8,7 C 16,0 C 3,2 km/h (1 Bft)
18/11/2011 15:50 15,8 C 62 % 1016,4 hPa 0,0 mm 2,9 km/h (1 Bft) S-SE 157 0 min 0 W/m 8,5 C 15,8 C 7,2 km/h (2 Bft)
18/11/2011 15:55 15,8 C 62 % 1016,3 hPa 0,0 mm 0,4 km/h (0 Bft) SE 135 0 min 0 W/m 8,5 C 15,8 C 3,6 km/h (1 Bft)
18/11/2011 16:00 15,6 C 62 % 1016,3 hPa 0,0 mm 0,7 km/h (0 Bft) S-SE 157 0 min 0 W/m 8,3 C 15,6 C 4,3 km/h (1 Bft)
18/11/2011 16:05 15,6 C 63 % 1016,2 hPa 0,0 mm 2,9 km/h (1 Bft) S 180 0 min 0 W/m 8,6 C 15,6 C 7,9 km/h (2 Bft)
18/11/2011 16:10 15,5 C 63 % 1016,1 hPa 0,0 mm 1,8 km/h (1 Bft) S-SE 157 0 min 0 W/m 8,5 C 15,5 C 1,8 km/h (1 Bft)
18/11/2011 16:15 15,4 C 63 % 1016,1 hPa 0,0 mm 0,7 km/h (0 Bft) S-SO 202 0 min 0 W/m 8,4 C 15,4 C 0,7 km/h (0 Bft)
18/11/2011 16:20 15,2 C 63 % 1016,1 hPa 0,0 mm 7,6 km/h (2 Bft) S-SE 157 0 min 0 W/m 8,2 C 15,2 C 10,4 km/h (2 Bft)
_ Min-Heure 08:20 14:00 16:20 - 13:00 - - - - 08:20 08:15 13:00
Minimum _ 3,1 C 60 % 1016,1 hPa - 0,0 km/h (0 Bft) - - - - 1,9 C 1,8 C 0,0 km/h (0 Bft)
_ Max-Heure 14:40 06:55 00:10 01:20 15:00 - - 16:20 16:20 13:00 14:40 13:50
Maximum _ 16,6 C 93 % 1022,1 hPa 0,1 mm 11,2 km/h
S (2 Bft)
- - 0 min 0 W/m 10,1 C 16,6 C 17,6 km/h
S-SE (3 Bft)
Moyenne _ 7,6 C 84 % 1019,8 hPa #0,1 mm 2,1 km/h (1 Bft) E-SE - #0 min. 0 W/m 4,8 C 7,6 C 4,2 km/h (1 Bft)
Saint Bonnet de Bellac- Haute Vienne - France